Location: Ajisawe
(8.4333°N, 4.3833°E)
Time: 20:40:22
(UTC+00:00)

Vanguard 2 Rocket - Pass Details

Date: 25 April 2021
Orbit: 554 x 3326 km, 32.9° (Epoch: 16 May)

Event Time Altitude Azimuth Distance (km) Brightness Sun altitude
Rises 11:42:43 0° 274° (W) 5,360 10.9 85.0°
Reaches altitude 10° 11:46:13 10° 283° (WNW) 4,716 10.7 84.9°
Maximum altitude 11:59:15 37° 346° (NNW) 3,935 10.9 83.2°
Drops below altitude 10° 12:16:59 10° 47° (NE) 6,281 11.3 79.8°
Sets 12:22:44 0° 56° (NE) 7,261 11.4 78.5°
